Weather in Strigino

Russia / Smolensk Oblast     54°26′43″N   32°38′36″E
temp.,
°C
wind,
m/s
gust,
m/s
humid.,
%
clouds,
%
prec.,
mm/h
press.,
hPa
HPBL,
m
21 january, fri
fri2100:00−2ssw61191100 0.1 997785
03:00−3s51196100 0.3 996624
06:00−5ssw6119052 0.7 995516
09:00−8s61394100 0.7 994351
12:00−5s71494100 0.3 993652
15:00−3s61097100 1.3 991669
18:00−4ssw51097100 1.0 991533
21:00−4sw4896100 1.9 992381
22 january, sat
sat2200:00−6wsw599598 0.6 994374
03:00−7wsw499689 1.1 996311
06:00−9wsw369794 0.2 998108
09:00−10w249783 0.4 100166
12:00−7nnw3594100 0.3 1004333
15:00−6nnw3493100 0.6 1006372
18:00−9nnw249799 0.3 100975
21:00−12n239982 0.4 101132
23 january, sun
sun2300:00−12ne369782 0.1 101498
03:00−14ne369784 0.1 101791
06:00−18ne3410086 0.1 102039
09:00−18ne3510099 0.1 102459
12:00−11ene369687 0.0 1027154
15:00−9ne359541 0.1 1028193
18:00−14ne3510092 0.0 103153
21:00−16ne359970 0.0 103453
24 january, mon
mon2400:00−18ne3410099 0.0 103545
03:00−19ne34100100 0.0 103640
06:00−18nne36100100 0.0 103672
09:00−18ne3710099 0.0 103685
12:00−12ene379441 0.0 1035155
15:00−9nne35938 0.0 1033198
18:00−15nne339970 0.0 103334
21:00−17ene229960 0.0 10339
25 january, tue
tue2500:00−19ene2210073 0.0 103111
03:00−20nne11100100 0.0 10309
06:00−20sse00100100 0.0 10289
09:00−20sse22100100 0.1 102611
12:00−12s239694 0.0 1024107
15:00−9s239477 0.1 1021179
18:00−15se229994 0.0 102119
21:00−15se2497100 0.0 102145